Date String (YYYY-MM-DD hh:mm:ss) UTC,Instrument flags,absolute air pressure of the measurement (hPa),sample flow rate (lpm),inlet stack bypass flow (lpm),air temperature of the measurement (°C),ambient temperature measured by the external sensor (°C),aerosol sample conditioner tube jacket temperature (°C),OPC LED temperature (°C),internal box temperature (°C),relative humidity of the measurement (%),span deviation,mass concentration of particles derived from Lorenz-Mie calculation of OPC scattering (μg/m³),mass concentration of particles derived from Lorenz-Mie calculation of OPC scattering (μg/m³),mass concentration of particles derived from Lorenz-Mie calculation of OPC scattering (μg/m³)
DateTimeUTC,F1_M11,P_M11,Q1_M11,Q2_M11,T1_M11,T2_M11,T3_M11,T4_M11,T5_M11,U1_M11,ZSPAN_M11,X0_M11,X2_M11,X1_M11
2023-08-18 12:00:00,SystemResetWarning,0829.8,5.01,000.00,028.4,027.4,000.0,036.8,030.2,32.1,0001.9,0024.56,0011.17,0009.63
2023-08-18 12:01:00,SystemResetWarning,0829.9,5.00,000.00,028.5,027.4,000.0,036.8,030.2,32.0,0001.9,0024.94,0011.15,0009.59
2023-08-18 12:02:00,SystemResetWarning,0829.8,5.00,000.00,028.5,027.5,000.0,036.9,030.3,31.8,0001.6,0024.66,0011.06,0009.51
2023-08-18 12:03:00,SystemResetWarning,0829.8,4.98,000.00,028.5,026.9,000.0,036.8,030.2,31.6,0001.7,0024.04,0011.02,0009.46
2023-08-18 12:04:00,SystemResetWarning,0829.8,5.00,000.00,028.5,025.2,000.0,036.8,029.9,31.8,0001.9,0024.26,0010.94,0009.40
2023-08-18 12:05:00,SystemResetWarning,0829.8,5.01,000.00,028.4,024.6,000.0,036.7,029.8,31.9,0001.8,0024.22,0010.93,0009.37
2023-08-18 12:06:00,SystemResetWarning,0829.8,5.00,000.00,028.3,024.8,000.0,036.7,029.6,31.7,0001.4,0024.53,0010.87,0009.32
2023-08-18 12:07:00,SystemResetWarning,0829.8,4.99,000.00,028.2,025.1,000.0,036.7,029.6,31.7,0000.9,0024.71,0010.80,0009.28
2023-08-18 12:08:00,SystemResetWarning,0829.8,5.00,000.00,028.2,025.5,000.0,036.7,029.7,31.7,0000.7,0024.44,0010.81,0009.26
2023-08-18 12:09:00,SystemResetWarning,0829.8,5.01,000.00,028.2,025.8,000.0,036.8,029.8,31.6,0000.5,0024.12,0010.80,0009.21
2023-08-18 12:10:00,SystemResetWarning,0829.9,5.01,000.00,028.2,026.1,000.0,036.8,029.9,31.5,0000.2,0023.40,0010.76,0009.13
2023-08-18 12:11:00,SystemResetWarning,0829.9,5.00,000.00,028.3,026.4,000.0,036.8,029.9,31.7,0000.5,0022.03,0010.66,0009.04
2023-08-18 12:12:00,SystemResetWarning,0830.0,4.99,000.00,028.3,026.6,000.0,036.8,030.0,31.7,0000.5,0021.41,0010.67,0009.02
2023-08-18 12:13:00,SystemResetWarning,0830.0,4.99,000.00,028.3,026.8,000.0,036.8,030.0,31.8,0000.5,0020.03,0010.66,0009.04
2023-08-18 12:14:00,SystemResetWarning,0830.0,5.00,000.00,028.3,026.9,000.0,036.8,030.1,31.8,0000.4,0020.11,0010.64,0009.06
2023-08-18 12:15:00,SystemResetWarning,0830.0,5.00,000.00,028.4,027.1,000.0,036.8,030.1,31.7,0000.4,0019.68,0010.64,0009.06
2023-08-18 12:16:00,SystemResetWarning,0830.0,5.00,000.00,028.4,027.2,000.0,036.9,030.1,31.7,0000.4,0019.99,0010.54,0008.96
2023-08-18 12:17:00,SystemResetWarning,0830.0,5.01,000.00,028.4,027.3,000.0,036.9,030.2,31.7,0001.0,0019.93,0010.56,0008.95
2023-08-18 12:18:00,SystemResetWarning,0830.0,5.00,000.00,028.5,027.3,000.0,036.9,030.2,31.7,0001.3,0019.82,0010.55,0008.94
2023-08-18 12:19:00,SystemResetWarning,0830.0,4.99,000.00,028.5,027.3,000.0,036.9,030.3,31.6,0001.4,0019.62,0010.57,0008.96
2023-08-18 12:20:00,SystemResetWarning,0830.0,4.99,000.00,028.5,025.9,000.0,036.8,030.1,31.6,0001.5,0020.88,0010.57,0009.00
2023-08-18 12:21:00,SystemResetWarning,0830.0,5.00,000.00,028.4,024.8,000.0,036.7,029.9,31.7,0001.6,0021.56,0010.64,0009.05
2023-08-18 12:22:00,SystemResetWarning,0830.0,5.01,000.00,028.4,024.7,000.0,036.7,029.8,31.9,0001.1,0022.08,0010.70,0009.13
2023-08-18 12:23:00,SystemResetWarning,0830.0,5.01,000.00,028.3,024.9,000.0,036.8,029.7,32.1,0000.8,0021.80,0010.70,0009.15
2023-08-18 12:24:00,SystemResetWarning,0830.0,4.99,000.00,028.3,025.3,000.0,036.8,029.7,32.2,0001.0,0022.43,0010.64,0009.10
2023-08-18 12:25:00,SystemResetWarning,0830.0,5.00,000.00,028.3,025.7,000.0,036.8,029.8,32.4,0000.7,0022.44,0010.68,0009.10
2023-08-18 12:26:00,SystemResetWarning,0830.0,5.01,000.00,028.3,026.0,000.0,036.8,029.9,32.2,0000.7,0022.64,0010.73,0009.12
2023-08-18 12:27:00,SystemResetWarning,0830.1,5.00,000.00,028.3,026.3,000.0,036.8,029.9,32.1,0000.7,0022.21,0010.85,0009.25
2023-08-18 12:28:00,SystemResetWarning,0830.0,5.00,000.00,028.3,026.5,000.0,036.8,030.0,32.0,0000.6,0022.65,0010.92,0009.33
2023-08-18 12:29:00,SystemResetWarning,0830.0,5.00,000.00,028.3,026.7,000.0,036.8,030.0,31.9,0000.3,0024.09,0010.99,0009.37
2023-08-18 12:30:00,SystemResetWarning,0830.0,5.01,000.00,028.3,026.9,000.0,036.8,030.0,31.6,0000.4,0024.22,0010.96,0009.37
2023-08-18 12:31:00,SystemResetWarning,0830.0,5.00,000.00,028.4,027.0,000.0,036.9,030.1,31.4,0000.1,0023.20,0010.91,0009.33
2023-08-18 12:32:00,SystemResetWarning,0830.0,5.00,000.00,028.4,027.1,000.0,036.9,030.1,31.5,-000.3,0023.16,0010.84,0009.30
2023-08-18 12:33:00,SystemResetWarning,0830.0,4.99,000.00,028.4,027.2,000.0,036.9,030.2,31.7,-000.3,0023.32,0010.87,0009.28
2023-08-18 12:34:00,SystemResetWarning,0830.0,4.99,000.00,028.5,027.3,000.0,036.9,030.2,31.4,-000.1,0024.25,0010.81,0009.26
2023-08-18 12:35:00,SystemResetWarning,0830.0,5.00,000.00,028.5,026.8,000.0,036.9,030.1,31.4,0000.1,0025.12,0010.83,0009.29
2023-08-18 12:36:00,SystemResetWarning,0830.1,5.00,000.00,028.4,025.2,000.0,036.8,029.9,31.4,0000.6,0025.59,0010.88,0009.29
2023-08-18 12:37:00,SystemResetWarning,0830.0,5.00,000.00,028.4,024.7,000.0,036.7,029.8,31.3,0000.8,0025.75,0010.88,0009.25
2023-08-18 12:38:00,SystemResetWarning,0830.0,5.01,000.00,028.3,024.9,000.0,036.7,029.7,31.5,0000.5,0026.48,0010.87,0009.20
2023-08-18 12:39:00,SystemResetWarning,0830.1,5.00,000.00,028.2,025.2,000.0,036.7,029.7,31.2,0000.7,0027.02,0010.89,0009.16
2023-08-18 12:40:00,SystemResetWarning,0830.1,5.00,000.00,028.2,025.6,000.0,036.8,029.8,31.3,0000.5,0025.51,0010.89,0009.13
2023-08-18 12:41:00,SystemResetWarning,0830.1,5.00,000.00,028.2,025.9,000.0,036.8,029.8,31.7,0000.5,0025.19,0010.92,0009.11
2023-08-18 12:42:00,SystemResetWarning,0830.1,4.99,000.00,028.3,026.2,000.0,036.8,029.9,31.5,0000.9,0025.33,0010.98,0009.11
2023-08-18 12:43:00,SystemResetWarning,0830.1,4.99,000.00,028.3,026.4,000.0,036.8,030.0,31.4,0001.8,0023.84,0010.91,0009.09
2023-08-18 12:44:00,SystemResetWarning,0830.1,4.99,000.00,028.3,026.7,000.0,036.8,030.0,31.2,0002.3,0024.49,0010.87,0009.05
2023-08-18 12:45:00,SystemResetWarning,0830.1,5.00,000.00,028.3,026.8,000.0,036.8,030.1,31.3,0002.3,0025.63,0010.92,0009.05
2023-08-18 12:46:00,SystemResetWarning,0830.2,5.01,000.00,028.4,027.0,000.0,036.8,030.1,31.3,0002.0,0024.51,0010.94,0009.06
2023-08-18 12:47:00,SystemResetWarning,0830.2,5.01,000.00,028.4,027.1,000.0,036.9,030.2,31.5,0001.7,0024.50,0010.93,0009.06
2023-08-18 12:48:00,SystemResetWarning,0830.1,5.01,000.00,028.5,027.2,000.0,036.9,030.2,31.5,0001.9,0024.33,0010.89,0009.08
2023-08-18 12:49:00,SystemResetWarning,0830.1,4.99,000.00,028.5,027.2,000.0,036.9,030.2,31.1,0002.2,0023.84,0010.87,0009.08
2023-08-18 12:50:00,SystemResetWarning,0830.1,4.99,000.00,028.5,025.9,000.0,036.8,030.0,31.2,0002.1,0022.92,0010.87,0009.09
2023-08-18 12:51:00,SystemResetWarning,0830.1,5.00,000.00,028.4,024.9,000.0,036.7,029.9,31.4,0002.0,0023.33,0010.88,0009.11
2023-08-18 12:52:00,SystemResetWarning,0830.1,5.01,000.00,028.4,025.0,000.0,036.7,029.7,31.7,0001.7,0024.63,0010.91,0009.13
2023-08-18 12:53:00,SystemResetWarning,0830.1,5.01,000.00,028.3,025.3,000.0,036.8,029.7,31.8,0001.8,0025.19,0010.92,0009.16
2023-08-18 12:54:00,SystemResetWarning,0830.1,5.00,000.00,028.3,025.6,000.0,036.8,029.8,31.8,0001.2,0025.51,0010.95,0009.17
2023-08-18 12:55:00,SystemResetWarning,0830.1,5.00,000.00,028.3,025.9,000.0,036.8,029.9,31.8,0001.0,0024.47,0010.95,0009.18
2023-08-18 12:56:00,SystemResetWarning,0830.0,5.00,000.00,028.3,026.2,000.0,036.8,029.9,31.8,0000.8,0022.96,0010.90,0009.19
2023-08-18 12:57:00,SystemResetWarning,0830.0,5.00,000.00,028.3,026.5,000.0,036.8,030.0,31.7,0000.8,0023.31,0010.97,0009.19
2023-08-18 12:58:00,SystemResetWarning,0830.1,4.99,000.00,028.3,026.7,000.0,036.8,030.0,31.5,0001.0,0022.79,0010.98,0009.16
2023-08-18 12:59:00,SystemResetWarning,0830.0,4.99,000.00,028.4,026.9,000.0,036.8,030.1,31.2,0000.7,0022.12,0010.89,0009.10
